#timestamp,LO_Frequency,Hit 
1501938015.2,286047005.6,N
1501938035.1,286047003.1,N
1501938036.0,286047003.1,N
1501938055.8,286047005.4,N
1501938075.6,286047005.2,N
1501938095.5,286047004.7,N
1501938115.3,286047007.0,N
1501938135.1,286047009.6,N
1501938155.9,286047011.6,N
1501938175.7,286047012.2,N
1501938195.5,286047009.8,N
1501938215.4,286047007.9,N
1501938235.2,286047005.0,N
1501938255.0,286047002.3,N
1501938255.9,286047002.3,N
1501938275.8,286047000.2,N
1501938295.6,286047001.2,N
1501938315.4,286047000.9,N
1501938335.2,286046996.7,N
1501938355.1,286046995.5,N
1501938356.0,286046995.5,N
1501938375.8,286046994.5,N
1501938395.6,286046993.4,N
1501938415.5,286046994.6,N
1501938435.3,286046990.6,N
1501938455.1,286046991.5,N
1501938475.9,286046994.7,N
1501938495.7,286046995.3,N
1501938515.5,286046995.7,N
1501938535.4,286046994.0,N
1501938555.2,286046996.2,N
1501938575.0,286046998.5,N
1501938575.9,286046998.5,N
1501938595.8,286047000.6,N
1501938615.6,286046999.4,N
1501938635.4,286046999.9,N
1501938655.3,286046998.9,N
1501938675.1,286047000.0,N
1501938676.0,286047000.0,N
1501938695.8,286047001.3,N
1501938715.7,286047004.5,N
1501938735.5,286047003.5,N
1501938755.3,286047001.6,N
1501938775.1,286047001.7,N
1501938795.9,286047003.6,N
1501938815.7,286047002.9,N
1501938835.5,286047005.8,N
1501938855.4,286047009.0,N
1501938875.2,286047010.2,N
1501938895.0,286047010.1,N
1501938895.9,286047010.1,N
1501938915.8,286047012.0,N
1501938935.6,286047011.9,N
1501938955.4,286047007.8,N
1501938975.3,286047005.1,N
1501938995.1,286047001.7,N
1501938996.0,286047001.7,N
1501939015.8,286047001.7,N
1501939035.7,286047000.8,N
1501939055.5,286046999.7,N
1501939075.3,286047000.4,N
1501939095.2,286046996.8,N
1501939115.9,286046995.7,N
1501939135.7,286046994.5,N
1501939155.6,286046992.1,N
1501939175.4,286046992.6,N
1501939195.2,286046989.3,N
1501939215.1,286046989.3,N
1501939216.0,286046989.3,N
1501939235.8,286046987.0,N
1501939255.6,286046989.7,N
1501939275.4,286046990.2,N
1501939295.3,286046992.6,N
1501939315.1,286046992.0,N
1501939335.8,286046995.3,N
1501939355.7,286046997.1,N
1501939375.5,286046997.5,N
1501939395.3,286046995.1,N
1501939415.2,286046992.0,N
1501939435.9,286046990.2,N
1501939455.7,286046988.6,N
1501939475.6,286046988.1,N
1501939495.4,286046987.8,N
1501939515.2,286046988.6,N
1501939535.1,286046990.0,N
1501939536.0,286046990.0,N
1501939555.8,286046985.3,P
1501939575.6,286046994.6,N
1501939595.5,286046991.1,N
1501939615.3,286046988.9,P
1501939635.1,286046997.5,N
1501939655.9,286046997.4,N
1501939675.7,286046996.4,N
1501939695.5,286046993.7,N
1501939715.4,286046999.5,N
1501939735.2,286047000.5,N
1501939755.0,286047002.2,N
1501939755.9,286047002.2,N
1501939775.8,286047007.2,N
1501939795.6,286047007.2,N
1501939815.4,286047008.6,N
1501939835.3,286047006.2,N
1501939855.1,286047007.8,N
1501939856.0,286047007.8,N
1501939875.8,286047008.3,N
1501939895.7,286047006.6,N
1501939915.5,286047008.1,N
1501939935.3,286047011.3,N
1501939955.1,286047013.5,N
1501939975.9,286047014.3,N
1501939995.7,286047016.9,N
1501940015.5,286047016.5,N
1501940035.4,286047021.2,N
1501940055.2,286047023.4,N
1501940075.0,286047025.7,N
1501940075.9,286047025.7,N
1501940095.8,286047025.4,N
1501940115.6,286047025.7,N
1501940135.4,286047029.8,N
1501940155.3,286047028.6,N
1501940175.1,286047027.5,N
1501940176.0,286047027.5,N
1501940195.8,286047029.5,N
1501940215.7,286047027.2,N
1501940235.5,286047026.2,N
1501940255.3,286047026.0,N
1501940275.2,286047027.2,N
1501940295.9,286047027.7,P
1501940315.7,286047012.2,N
1501940335.6,286047010.2,N
1501940355.4,286047010.2,N
1501940375.2,286047008.0,N
1501940395.1,286047010.7,N
1501940396.0,286047010.7,N
1501940415.8,286047010.4,N
1501940435.6,286047008.2,N
1501940455.5,286047010.7,N
1501940475.3,286047009.4,N
1501940495.1,286047013.4,N
1501940515.9,286047014.4,N
1501940535.7,286047018.4,P
1501940555.5,286047010.4,P
1501940575.4,286047013.2,P
1501940595.2,286047013.8,P
1501940615.0,286046999.6,P
1501940615.9,286046999.6,N
1501940635.8,286046999.9,N
1501940655.6,286047004.0,N
1501940675.4,286047006.7,N
1501940695.3,286047010.3,N
1501940715.1,286047011.1,N
1501940716.0,286047011.1,N
1501940735.8,286047014.0,N
1501940755.7,286047014.4,N
1501940775.5,286047015.8,N
1501940795.3,286047012.8,N
1501940815.1,286047010.8,N
1501940835.9,286047007.2,N
1501940855.7,286047003.3,N
1501940875.5,286047004.4,N
1501940895.4,286046998.5,N
1501940915.2,286046995.2,N
1501940935.0,286046996.3,N
1501940935.9,286046996.3,N
1501940955.8,286046997.3,N
1501940975.6,286046993.8,N
1501940995.4,286046990.5,N
1501941015.3,286046989.2,N
1501941035.1,286046989.7,N
1501941036.0,286046989.7,N
1501941055.8,286046986.4,N
1501941075.7,286046985.1,N
1501941095.5,286046985.1,N
1501941115.3,286046985.2,N
1501941135.2,286046984.8,N
1501941155.9,286046982.7,N
1501941175.7,286046983.0,N
1501941195.6,286046982.2,N
1501941215.4,286046984.3,N
1501941235.2,286046983.7,N
1501941255.0,286046985.2,N
1501941255.9,286046985.2,N
1501941275.8,286046984.6,N
1501941295.6,286046986.8,N
1501941315.4,286046985.9,N
1501941335.3,286046983.8,N
1501941355.1,286046986.1,N
1501941375.8,286046988.1,N
1501941395.7,286046988.4,N
1501941415.5,286046984.0,N
1501941435.3,286046982.5,P
1501941455.2,286046999.4,N
1501941475.0,286047000.5,N
1501941475.9,286047000.5,N
1501941495.7,286047002.7,N
1501941515.6,286046998.1,N
1501941535.4,286046997.5,N
1501941555.2,286046996.8,N
1501941575.1,286047000.5,N
1501941576.0,286047000.5,N
1501941595.8,286047000.2,N
